Weather History for Delta, CO

Change the Weather History Date:

Wednesday, August 7, 2013

  Actual Average (KMTJ) Record (KMTJ)
Temperature  
Mean Temperature 72 °F 72 °F  
Max Temperature 82 °F 88 °F 93 °F (1998)
Min Temperature 62 °F 57 °F 48 °F (1997)
Degree Days  
Heating Degree Days 0 0  
Month to date heating degree days 0  
Since 1 June heating degree days 39  
Since 1 July heating degree days 0  
Cooling Degree Days 7 7  
Month to date cooling degree days 55  
Year to date cooling degree days 477  
Since 1 June cooling degree days 460  
Growing Degree Days 22 (Base 50)    
Moisture  
Dew Point 50 °F    
Average Humidity 50    
Maximum Humidity 71    
Minimum Humidity 24    
Precipitation  
Precipitation 0.00 in 0.04 in 0.26 in (2007)
Month to date precipitation 0.27  
Year to date precipitation 6.34  
Sea Level Pressure  
Sea Level Pressure 30.13 in    
Wind  
Wind Speed 5 mph (ENE)    
Max Wind Speed 13 mph    
Max Gust Speed 17 mph    
Visibility 7 miles    
Events Rain , Thunderstorm    
T = Trace of Precipitation, MM = Missing Value Source: NWS Daily Summary

Daily Weather History Graph

Daily Weather History Graph

Search for Another Location

Airport:

Trip Planner

Search our weather history database for the weather conditions in past years. The results will help you decide how hot, cold, wet, or windy it might be!

Date:

Astronomy

Aug. 07, 2013 Rise Set
Actual Time 6:19 AM MDT 8:16 PM MDT
Civil Twilight 5:50 AM MDT 8:45 PM MDT
Nautical Twilight 5:14 AM MDT 9:20 PM MDT
Astronomical Twilight 4:36 AM MDT 9:58 PM MDT
Moon 7:09 AM MDT (8/7) 8:26 PM MDT (8/7)
Length of Visible Light 14h 55m
Length of Day
13h 57m
New Moon, 1% of the Moon is Illuminated
Aug 7
New Moon
Aug 14
First Quarter
Aug 20
Full
Aug 28
Last Quarter
Sep 5
New

Hourly Weather History & Observations

Time (MDT) Temp. Dew Point Humidity Pressure Visibility Wind Dir Wind Speed Gust Speed Precip Events Conditions
12:15 AM 66.2 °F 53.6 °F 64% 30.16 in 10.0 mi NNE 8.1 mph - N/A   Clear
12:35 AM 65.1 °F 54.0 °F 67% 30.15 in 7.0 mi North 9.2 mph - N/A   Clear
12:55 AM 65.3 °F 53.6 °F 66% 30.16 in 7.0 mi NNE 5.8 mph - N/A   Clear
1:15 AM 64.8 °F 53.2 °F 66% 30.15 in 7.0 mi North 8.1 mph - N/A   Clear
1:35 AM 64.2 °F 53.1 °F 67% 30.15 in 7.0 mi NNE 5.8 mph - N/A   Clear
1:55 AM 63.7 °F 52.9 °F 68% 30.15 in 5.0 mi ENE 3.5 mph - N/A   Haze
2:15 AM 63.0 °F 52.9 °F 70% 30.14 in 7.0 mi ENE 3.5 mph - N/A   Clear
2:35 AM 62.8 °F 53.4 °F 71% 30.13 in 5.0 mi Calm Calm - N/A   Haze
2:55 AM 63.0 °F 53.4 °F 71% 30.14 in 10.0 mi NE 3.5 mph - N/A Rain Rain
3:15 AM 63.7 °F 53.6 °F 70% 30.13 in 10.0 mi North 4.6 mph - N/A Rain Rain
3:35 AM 64.4 °F 52.2 °F 64% 30.13 in 10.0 mi NNE 4.6 mph - N/A Rain Light Rain
3:55 AM 63.5 °F 52.7 °F 68% 30.13 in 7.0 mi NE 5.8 mph - N/A   Clear
4:15 AM 63.1 °F 51.8 °F 66% 30.13 in 7.0 mi NE 5.8 mph - N/A   Clear
4:35 AM 63.7 °F 53.1 °F 68% 30.13 in 7.0 mi NE 6.9 mph - N/A   Clear
4:55 AM 63.5 °F 53.6 °F 70% 30.13 in 7.0 mi ENE 3.5 mph - N/A   Clear
5:15 AM 63.1 °F 53.8 °F 71% 30.13 in 7.0 mi East 3.5 mph - N/A   Clear
5:35 AM 63.0 °F 53.2 °F 71% 30.13 in 10.0 mi NE 3.5 mph - N/A   Clear
5:55 AM 62.8 °F 53.2 °F 71% 30.13 in 7.0 mi North 4.6 mph - N/A   Clear
6:15 AM 64.0 °F 52.3 °F 66% 30.14 in 7.0 mi North 5.8 mph - N/A   Clear
6:35 AM 64.4 °F 52.3 °F 65% 30.15 in 7.0 mi NNE 3.5 mph - N/A   Clear
6:55 AM 64.4 °F 51.8 °F 64% 30.14 in 5.0 mi NNE 4.6 mph - N/A   Haze
7:15 AM 65.8 °F 51.8 °F 60% 30.14 in 7.0 mi NNE 4.6 mph - N/A   Clear
7:35 AM 66.4 °F 52.0 °F 60% 30.15 in 7.0 mi Calm Calm - N/A   Clear
7:55 AM 64.9 °F 53.6 °F 67% 30.15 in 7.0 mi ESE 3.5 mph - N/A   Clear
8:15 AM 65.7 °F 53.2 °F 64% 30.16 in 7.0 mi East 6.9 mph - N/A   Clear
8:35 AM 66.7 °F 52.9 °F 61% 30.17 in 7.0 mi East 4.6 mph - N/A   Clear
8:55 AM 67.3 °F 52.3 °F 59% 30.17 in 7.0 mi East 3.5 mph - N/A   Clear
9:15 AM 68.2 °F 52.2 °F 56% 30.17 in 7.0 mi Calm Calm - N/A   Scattered Clouds
9:35 AM 68.9 °F 52.0 °F 55% 30.17 in 7.0 mi Calm Calm - N/A   Scattered Clouds
9:55 AM 69.4 °F 51.8 °F 53% 30.17 in 7.0 mi Calm Calm - N/A   Overcast
10:15 AM 70.0 °F 53.8 °F 56% 30.17 in 5.0 mi SE 3.5 mph - N/A   Haze
10:35 AM 71.2 °F 52.2 °F 51% 30.17 in 7.0 mi Calm Calm - N/A   Overcast
10:55 AM 73.9 °F 51.1 °F 45% 30.16 in 7.0 mi ESE 3.5 mph - N/A   Scattered Clouds
11:15 AM 75.2 °F 50.5 °F 42% 30.16 in 7.0 mi ENE 3.5 mph - N/A   Clear
11:35 AM 76.1 °F 48.4 °F 38% 30.15 in 7.0 mi Calm Calm - N/A   Clear
11:55 AM 76.5 °F 48.4 °F 37% 30.15 in 7.0 mi East 3.5 mph - N/A   Clear
12:15 PM 77.2 °F 48.9 °F 37% 30.15 in 7.0 mi East 3.5 mph - N/A   Clear
12:35 PM 78.6 °F 48.4 °F 34% 30.15 in 5.0 mi ENE 4.6 mph - N/A   Haze
12:55 PM 78.4 °F 49.6 °F 36% 30.15 in 7.0 mi East 6.9 mph - N/A   Scattered Clouds
1:15 PM 79.0 °F 48.7 °F 35% 30.15 in 5.0 mi ESE 3.5 mph - N/A   Haze
1:35 PM 78.8 °F 49.3 °F 35% 30.15 in 7.0 mi East 3.5 mph - N/A Thunderstorm Clear
1:55 PM 79.2 °F 49.1 °F 35% 30.14 in 7.0 mi Calm Calm - N/A   Scattered Clouds
2:15 PM 78.8 °F 49.1 °F 35% 30.14 in 7.0 mi Calm Calm - N/A   Scattered Clouds
2:35 PM 79.0 °F 51.6 °F 38% 30.13 in 7.0 mi SSE 10.4 mph - N/A   Scattered Clouds
2:55 PM 79.7 °F 50.2 °F 36% 30.12 in 7.0 mi SSE 11.5 mph - N/A   Scattered Clouds
3:15 PM 80.8 °F 49.8 °F 34% 30.11 in 5.0 mi South 11.5 mph - N/A   Haze
3:35 PM 80.8 °F 49.6 °F 34% 30.10 in 7.0 mi South 8.1 mph - N/A   Clear
3:55 PM 82.6 °F 48.6 °F 30% 30.09 in 7.0 mi SE 5.8 mph - N/A   Clear
4:15 PM 81.5 °F 48.6 °F 32% 30.09 in 7.0 mi SSE 9.2 mph - N/A   Scattered Clouds
4:35 PM 79.2 °F 45.5 °F 30% 30.09 in 7.0 mi NE 12.7 mph 17.3 mph N/A   Overcast
4:55 PM 79.0 °F 45.3 °F 30% 30.09 in 7.0 mi NNE 8.1 mph - N/A Thunderstorm Mostly Cloudy
5:15 PM 78.1 °F 42.4 °F 28% 30.09 in 7.0 mi Calm Calm - N/A   Scattered Clouds
5:35 PM 78.3 °F 42.6 °F 28% 30.08 in 10.0 mi NW 4.6 mph - N/A   Clear
5:55 PM 79.7 °F 40.3 °F 24% 30.08 in 7.0 mi NW 8.1 mph - N/A   Clear
6:15 PM 79.9 °F 43.0 °F 27% 30.07 in 7.0 mi West 5.8 mph - N/A   Clear
6:35 PM 79.3 °F 45.3 °F 30% 30.07 in 7.0 mi WSW 5.8 mph - N/A   Clear
6:55 PM 78.1 °F 48.4 °F 35% 30.07 in 7.0 mi SSW 5.8 mph - N/A   Clear
7:15 PM 77.5 °F 48.6 °F 36% 30.07 in 10.0 mi South 4.6 mph - N/A   Clear
7:35 PM 77.0 °F 49.3 °F 38% 30.07 in 7.0 mi SSE 4.6 mph - N/A   Clear
7:55 PM 75.9 °F 50.2 °F 40% 30.07 in 7.0 mi SSE 3.5 mph - N/A   Clear
8:15 PM 75.2 °F 50.5 °F 42% 30.07 in 7.0 mi SSE 4.6 mph - N/A   Clear
8:35 PM 74.5 °F 50.4 °F 43% 30.07 in 7.0 mi Calm Calm - N/A   Scattered Clouds
8:55 PM 73.9 °F 50.4 °F 43% 30.08 in 10.0 mi Calm Calm - N/A   Scattered Clouds
9:15 PM 74.3 °F 49.6 °F 42% 30.09 in 7.0 mi SW 3.5 mph - N/A   Scattered Clouds
9:35 PM 73.4 °F 49.6 °F 43% 30.10 in 10.0 mi Calm Calm - N/A   Clear
9:55 PM 72.7 °F 50.2 °F 45% 30.12 in 7.0 mi Calm Calm - N/A   Clear
10:15 PM 73.6 °F 49.1 °F 42% 30.12 in 7.0 mi Calm Calm - N/A   Clear
10:35 PM 72.7 °F 49.3 °F 44% 30.12 in 7.0 mi East 3.5 mph - N/A   Scattered Clouds
10:55 PM 70.3 °F 50.0 °F 48% 30.11 in 7.0 mi East 3.5 mph - N/A   Scattered Clouds
11:15 PM 69.8 °F 50.7 °F 51% 30.11 in 7.0 mi East 3.5 mph - N/A   Clear
11:35 PM 69.6 °F 50.4 °F 50% 30.11 in 10.0 mi Calm Calm - N/A   Clear
11:55 PM 69.3 °F 50.7 °F 52% 30.11 in 7.0 mi ESE 3.5 mph - N/A   Clear